Flag for U.S.A. Weather past 2 weeks in Amarillo, Texas, U.S.A.

Now
88 °F

Sunny.


Feels Like: 86 °F
Forecast: 68 / 91 °F
Wind: 23 mph from South

Location: Amarillo International Airport

Current Time: Sep 2, 2015 at 7:18:03 PM

Latest Report: Sep 2, 2015 at 6:53 PM


Visibility: 10 mi

Pressure: 29.81 "Hg (26.30 "Hg at 1117m altitude)

Humidity: 31%

Dew point: 54 °F

Location of AmarilloLocation

Historic Weather in Amarillo — Graph

°F

Amarillo temperature yesterday

Maximum temperature yesterday: 91 °F (at 3:53 PM)
Minimum temperature yesterday: 65 °F (at 6:53 AM)
Average temperature yesterday: 78 °F

Past Weeks' High & Low Weather Summary

 TemperatureHumidityPressure
High94 °F (Aug 22, 3:53 PM)97% (Aug 21, 8:56 AM)30.19 "Hg (Aug 21, 8:56 AM)
Low55 °F (Aug 20, 4:53 AM)26% (Aug 31, 3:53 PM)29.65 "Hg (Aug 18, 6:53 PM)
Average74 °F59%29.94 "Hg
* Reported Aug 18 5:53 PM — Sep 2 5:53 PM, Amarillo, Weather by CustomWeather, © 2015

Note: Actual official high and low records may vary slightly from our data, if they occured in-between our weather recording intervals... More about our weather records

Advertising

Amarillo weather history for previous 24 hours

 ConditionsComfort  
Time TempWeatherWind HumidityBarometerVisibility
5:53 PM
Wed, Sep 2
90 °FSunny.20 mph29%29.81 "Hg10 mi
4:53 PM90 °FSunny.21 mph31%29.83 "Hg10 mi
3:53 PM89 °FSunny.18 mph31%29.85 "Hg10 mi
2:53 PM90 °FSunny.20 mph32%29.88 "Hg10 mi
1:53 PM90 °FSunny.20 mph32%29.89 "Hg10 mi
12:53 PM89 °FSunny.14 mph32%29.90 "Hg10 mi
11:53 AM84 °FSunny.13 mph37%29.94 "Hg10 mi
10:53 AM80 °FSunny.10 mph44%29.94 "Hg10 mi
9:53 AM78 °FSunny.10 mph43%29.93 "Hg10 mi
8:53 AM75 °FSunny.14 mph47%29.93 "Hg10 mi
7:53 AM70 °FClear.10 mph57%29.93 "Hg10 mi
6:53 AM71 °FClear.14 mph55%29.90 "Hg10 mi
5:53 AM71 °FClear.16 mph55%29.89 "Hg10 mi
4:53 AM72 °FClear.16 mph53%29.90 "Hg10 mi
3:53 AM71 °FClear.15 mph57%29.90 "Hg10 mi
2:53 AM70 °FClear.10 mph59%29.92 "Hg10 mi
1:53 AM71 °FClear.13 mph57%29.92 "Hg10 mi
12:53 AM75 °FPassing clouds.13 mph48%29.93 "Hg10 mi
11:53 PM
Tue, Sep 1
72 °FClear.9 mph55%29.94 "Hg10 mi
10:53 PM77 °FPassing clouds.9 mph45%29.92 "Hg10 mi
9:53 PM78 °FClear.12 mph45%29.90 "Hg10 mi
8:53 PM81 °FSunny.15 mph39%29.89 "Hg10 mi
7:53 PM84 °FSunny.12 mph36%29.88 "Hg10 mi
Weather by CustomWeather, © 2015

See weather overviewHow to use our weather pages